User: anonymous   Login
Location: Clinton NY
(43.0598°N, 75.3602°W)
Time: 10:00:06
(UTC-04:00)
Language:

Cosmos-2242 - Orbit

View from above orbital plane
View from above orbital plane
View from above satellite
View from above satellite

Ground track
Ground track

The orbit data is extracted from the following two-line orbital elements,

1 22626U 93024A   16269.18206172  .00000310  00000-0  31378-4 0  9997
2 22626  82.5198 291.6195 0017503 281.3414  78.5836 14.87524388266758
Epoch (UTC): 25 September 2016 04:22:10
Eccentricity: 0.0017503
inclination: 82.5198°
perigee height: 593 km
apogee height: 618 km
right ascension of ascending node: 291.6195°
argument of perigee: 281.3414°
revolutions per day: 14.87524388
mean anomaly at epoch: 78.5836°
orbit number at epoch: 26675

The dashed part of the orbit path shows where the satellite is in the earth's shadow,  

DLR